This is the latest recevied weather packets stored in our database for station/object KC1TEM-13. If no packets are shown the sender has not sent any weather packets the latest 10 day(s).
| Time | Temp. | Humidity | Pressure | Rain* | Wind** | Luminosity | Snow |
|---|---|---|---|---|---|---|---|
| 1778072256 | 18.89° C | 67% | 1009.7 hPa | 0 mm | - | 151 W/m² | - |
| 1778071953 | 18.89° C | 67% | 1009.5 hPa | 0 mm | - | 158 W/m² | - |
| 1778071651 | 18.89° C | 67% | 1009.4 hPa | 0 mm | - | 204 W/m² | - |
| 1778071349 | 18.89° C | 67% | 1009.4 hPa | 0 mm | - | 153 W/m² | - |
| 1778071046 | 18.89° C | 67% | 1009.6 hPa | 0 mm | - | 160 W/m² | - |
| 1778070745 | 18.89° C | 67% | 1009.7 hPa | 0 mm | - | 144 W/m² | - |
| 1778070441 | 18.89° C | 66% | 1009.6 hPa | 0 mm | - | 102 W/m² | - |
| 1778070138 | 19.44° C | 65% | 1009.8 hPa | 0 mm | - | 169 W/m² | - |
| 1778069836 | 18.89° C | 68% | 1009.7 hPa | 0 mm | - | 352 W/m² | - |
| 1778069532 | 17.78° C | 69% | 1009.6 hPa | 0 mm | - | 354 W/m² | - |
| 1778069230 | 17.78° C | 70% | 1009.8 hPa | 0 mm | - | 122 W/m² | - |
| 1778068928 | 17.78° C | 70% | 1009.8 hPa | 0 mm | - | 94 W/m² | - |
| 1778068626 | 17.78° C | 70% | 1009.9 hPa | 0 mm | - | 99 W/m² | - |
| 1778068324 | 17.78° C | 70% | 1009.9 hPa | 0 mm | - | 107 W/m² | - |
| 1778068021 | 17.78° C | 70% | 1009.8 hPa | 0 mm | - | 101 W/m² | - |
| 1778067718 | 17.78° C | 70% | 1009.8 hPa | 0 mm | - | 106 W/m² | - |
| 1778067417 | 17.78° C | 70% | 1009.9 hPa | 0 mm | - | 97 W/m² | - |
| 1778067114 | 17.22° C | 70% | 1009.7 hPa | 0 mm | - | 79 W/m² | - |
| 1778066810 | 17.22° C | 71% | 1010.1 hPa | 0 mm | - | 85 W/m² | - |
| 1778066508 | 17.22° C | 70% | 1010 hPa | 0 mm | - | 117 W/m² | - |
| 1778066205 | 17.22° C | 71% | 1009.8 hPa | 0 mm | - | 96 W/m² | - |
| 1778065903 | 17.22° C | 71% | 1009.7 hPa | 0 mm | - | 112 W/m² | - |
| 1778065600 | 17.22° C | 72% | 1009.9 hPa | 0 mm | - | 117 W/m² | - |
| 1778065297 | 16.67° C | 72% | 1010.1 hPa | 0 mm | - | 96 W/m² | - |
| 1778064993 | 16.67° C | 72% | 1009.9 hPa | 0 mm | - | 58 W/m² | - |
* Rain latest hour (hover to see other rain measurements)
** Current wind speed in m/s (hover to see current wind gust speed)